Location: Bluewater Lake State Park
(35.2919°N, 108.1111°W)
Time: 15:45:13
(UTC-07:00)

Tiangong 2 - Visible Passes

Search period start: 16 November 2018 00:00
Search period end: 26 November 2018 00:00
Orbit: 382 x 393 km, 42.8° (Epoch: 16 November)

Date Brightness Start Highest point End Pass type
(mag) Time Alt. Az. Time Alt. Az. Time Alt. Az.
22 Nov 3.0 06:26:12 10° SSW 06:29:05 32° SE 06:31:59 10° E visible
23 Nov 4.0 05:28:29 10° S 05:30:39 17° SE 05:32:49 10° E visible
24 Nov 1.4 06:05:26 10° SW 06:08:35 68° SSE 06:11:46 10° ENE visible
25 Nov 2.5 05:09:38 32° SSE 05:10:03 34° SE 05:12:58 10° E visible
